Date,TemperatureHighF,TemperatureAvgF,TemperatureLowF,DewpointHighF,DewpointAvgF,DewpointLowF,HumidityHigh,HumidityAvg,HumidityLow,PressureMaxIn,PressureMinIn,WindSpeedMaxMPH,WindSpeedAvgMPH,GustSpeedMaxMPH,PrecipitationSumIn
2013-2-1,75.8,61.3,46.5,44.0,40.5,38.0,72,49,27,30.50,30.41,6,0,0,0.00
2013-2-2,77.8,64.6,51.9,51.0,41.9,38.0,69,46,25,30.54,30.41,0,0,0,0.00
2013-2-3,77.0,67.3,59.0,48.0,45.8,44.0,62,47,31,30.41,30.25,7,0,0,0.00
2013-2-4,83.9,66.5,53.5,46.0,42.0,37.0,65,44,19,30.34,30.19,4,0,0,0.00
2013-2-5,78.4,65.6,52.8,44.0,40.4,37.0,60,42,23,30.30,30.15,6,0,0,0.00
2013-2-6,80.1,62.5,54.7,45.0,42.4,33.0,69,50,18,30.33,30.15,12,1,0,0.00
2013-2-7,73.4,61.0,51.1,45.0,40.0,33.0,70,49,23,30.37,30.16,11,1,0,0.00
2013-2-8,60.5,52.4,41.9,39.0,34.7,29.0,77,53,35,30.23,30.16,16,3,0,0.01
2013-2-9,62.1,50.2,38.8,36.0,33.0,30.0,84,55,31,30.36,30.18,7,0,0,0.00
2013-2-10,64.1,53.1,41.9,36.0,33.5,31.0,73,49,29,30.36,30.24,10,1,0,0.00
2013-2-11,62.5,54.2,44.5,36.0,23.9,11.0,63,35,14,30.55,30.33,16,3,0,0.00
2013-2-12,69.5,53.0,40.3,32.0,23.1,17.0,60,34,16,30.65,30.51,6,0,0,0.00
2013-2-13,76.7,57.0,42.5,34.0,29.5,25.0,56,38,17,30.57,30.39,7,0,0,0.00
2013-2-14,80.6,63.2,48.0,37.0,32.4,30.0,55,34,16,30.49,30.36,6,0,0,0.00
2013-2-15,80.5,64.9,50.3,34.0,30.2,26.0,51,30,14,30.57,30.46,5,0,0,0.00
2013-2-16,81.6,63.9,46.7,38.0,28.2,23.0,54,29,12,30.54,30.25,0,0,0,0.00
2013-2-17,82.1,63.8,47.5,38.0,30.5,22.0,44,30,14,30.25,30.09,10,1,0,0.00
2013-2-18,75.0,62.5,48.8,42.0,35.9,29.0,59,39,21,30.31,30.13,7,0,0,0.00
2013-2-19,63.8,56.3,49.2,42.0,36.9,33.0,65,49,33,30.16,29.96,9,2,0,0.01
2013-2-20,62.2,51.7,41.2,41.0,34.5,30.0,89,55,34,30.23,29.94,10,2,0,0.13
2013-2-21,64.4,53.1,40.0,37.0,32.5,27.0,82,48,25,30.38,30.23,8,0,0,0.00
2013-2-22,72.3,55.5,42.3,33.0,29.0,22.0,63,40,15,30.49,30.38,5,0,0,0.00
2013-2-23,69.8,58.0,43.8,38.0,33.2,20.0,66,41,22,30.45,30.07,12,1,0,0.00
2013-2-24,66.5,58.5,49.0,22.0,14.6,9.0,31,18,12,30.50,30.30,11,2,0,0.00
2013-2-25,68.9,55.5,42.2,30.0,21.3,15.0,51,28,15,30.55,30.32,8,0,0,0.00
2013-2-26,74.9,57.8,41.2,30.0,24.8,14.0,59,32,12,30.48,30.29,5,0,0,0.00
2013-2-27,73.7,59.2,45.5,29.0,21.1,14.0,51,25,12,30.61,30.49,7,0,0,0.00
2013-2-28,80.7,63.5,46.4,31.0,23.6,16.0,37,23,11,30.66,30.54,7,0,0,0.00